When you browse on this site, cookies collect data to enhance your experience and personalize the content and advertising you see.
Visit our Privacy Policy to learn more. By continuing to use the site, you agree to this use of cookies and data.
  • In Hungary
  • List of Countries
  • For 7 days
  • Water Temperature
  • Weather Map
  • News
  • Weather Widgets
  • user-avatar
    Login

    Hourly Weather Aliganj

    Today, 10 April, Friday

    Time Temperature Precipitation Wind Pressure Humidity
    00:00 +28°C° 0 mm 2 mps 742 mmHg 22%
    01:00 +27°C° 0 mm 2 mps 741 mmHg 23%
    02:00 +27°C° 0 mm 2 mps 740 mmHg 24%
    03:00 +26°C° 0 mm 2 mps 741 mmHg 25%
    04:00 +26°C° 0 mm 2 mps 741 mmHg 26%
    05:00 +25°C° 0 mm 2 mps 742 mmHg 26%
    06:00 +27°C° 0 mm 2 mps 742 mmHg 23%
    07:00 +30°C° 0 mm 2 mps 743 mmHg 20%
    08:00 +32°C° 0 mm 2 mps 743 mmHg 17%
    09:00 +35°C° 0 mm 2 mps 743 mmHg 16%
    10:00 +37°C° 0 mm 3 mps 743 mmHg 14%
    11:00 +39°C° 0 mm 3 mps 744 mmHg 12%
    12:00 +41°C° 0 mm 4 mps 743 mmHg 11%
    13:00 +42°C° 0 mm 4 mps 742 mmHg 11%
    14:00 +43°C° 0 mm 5 mps 741 mmHg 10%
    15:00 +42°C° 0 mm 5 mps 740 mmHg 10%
    16:00 +42°C° 0 mm 5 mps 740 mmHg 11%
    17:00 +41°C° 0 mm 5 mps 740 mmHg 11%
    18:00 +38°C° 0 mm 4 mps 741 mmHg 13%
    19:00 +36°C° 0 mm 3 mps 741 mmHg 15%
    20:00 +34°C° 0 mm 3 mps 742 mmHg 17%
    21:00 +33°C° 0 mm 3 mps 742 mmHg 18%
    22:00 +31°C° 0 mm 2 mps 742 mmHg 20%
    23:00 +30°C° 0 mm 2 mps 743 mmHg 21%

    Tomorrow, 11 April, Saturday

    Time Temperature Precipitation Wind Pressure Humidity
    00:00 +30°C° 0 mm 2 mps 742 mmHg 22%
    01:00 +29°C° 0 mm 1 mps 742 mmHg 23%
    02:00 +29°C° 0 mm 1 mps 741 mmHg 23%
    03:00 +29°C° 0 mm 1 mps 742 mmHg 24%
    04:00 +28°C° 0 mm 1 mps 742 mmHg 25%
    05:00 +28°C° 0 mm 1 mps 742 mmHg 26%
    06:00 +30°C° 0 mm 1 mps 742 mmHg 23%
    07:00 +32°C° 0 mm 1 mps 743 mmHg 21%
    08:00 +34°C° 0 mm 1 mps 744 mmHg 19%
    09:00 +37°C° 0 mm 2 mps 743 mmHg 16%
    10:00 +39°C° 0 mm 2 mps 743 mmHg 14%
    11:00 +43°C° 0 mm 3 mps 743 mmHg 11%
    12:00 +43°C° 0 mm 4 mps 742 mmHg 10%
    13:00 +44°C° 0 mm 4 mps 741 mmHg 10%
    14:00 +46°C° 0 mm 5 mps 741 mmHg 9%
    15:00 +45°C° 0 mm 5 mps 740 mmHg 9%
    16:00 +45°C° 0 mm 5 mps 739 mmHg 9%
    17:00 +43°C° 0 mm 5 mps 739 mmHg 9%
    18:00 +41°C° 0 mm 4 mps 739 mmHg 10%
    19:00 +38°C° 0 mm 3 mps 739 mmHg 11%
    20:00 +35°C° 0 mm 2 mps 740 mmHg 13%
    21:00 +34°C° 0 mm 2 mps 740 mmHg 14%
    22:00 +34°C° 0 mm 2 mps 740 mmHg 14%
    23:00 +32°C° 0 mm 2 mps 740 mmHg 15%

    Day after tomorrow, 12 April, Sunday

    Time Temperature Precipitation Wind Pressure Humidity
    00:00 +31°C° 0 mm 2 mps 740 mmHg 16%
    01:00 +31°C° 0 mm 3 mps 740 mmHg 17%
    02:00 +30°C° 0 mm 3 mps 740 mmHg 18%
    03:00 +29°C° 0 mm 3 mps 740 mmHg 20%
    04:00 +29°C° 0 mm 2 mps 740 mmHg 21%
    05:00 +29°C° 0 mm 2 mps 740 mmHg 22%
    06:00 +31°C° 0 mm 2 mps 741 mmHg 20%
    07:00 +34°C° 0 mm 2 mps 741 mmHg 18%
    08:00 +36°C° 0 mm 2 mps 742 mmHg 16%
    09:00 +38°C° 0 mm 3 mps 742 mmHg 15%
    10:00 +41°C° 0 mm 4 mps 742 mmHg 13%
    11:00 +43°C° 0 mm 5 mps 742 mmHg 11%
    12:00 +45°C° 0 mm 5 mps 741 mmHg 11%
    13:00 +46°C° 0 mm 6 mps 740 mmHg 10%
    14:00 +46°C° 0 mm 6 mps 739 mmHg 10%
    15:00 +46°C° 0 mm 6 mps 738 mmHg 10%
    16:00 +45°C° 0 mm 6 mps 738 mmHg 11%
    17:00 +44°C° 0 mm 6 mps 737 mmHg 11%
    18:00 +41°C° 0 mm 5 mps 737 mmHg 13%
    19:00 +38°C° 0 mm 4 mps 738 mmHg 15%
    20:00 +36°C° 0 mm 4 mps 738 mmHg 17%
    21:00 +36°C° 0 mm 4 mps 738 mmHg 18%
    22:00 +35°C° 0 mm 4 mps 738 mmHg 19%
    23:00 +34°C° 0 mm 4 mps 738 mmHg 20%

    13 April, Monday

    Time Temperature Precipitation Wind Pressure Humidity
    00:00 +34°C° 0 mm 3 mps 738 mmHg 21%
    01:00 +33°C° 0 mm 3 mps 738 mmHg 21%
    02:00 +33°C° 0 mm 3 mps 737 mmHg 21%
    03:00 +31°C° 0 mm 3 mps 738 mmHg 22%
    04:00 +31°C° 0 mm 3 mps 738 mmHg 22%
    05:00 +30°C° 0 mm 2 mps 738 mmHg 23%
    06:00 +33°C° 0 mm 3 mps 739 mmHg 20%
    07:00 +35°C° 0 mm 3 mps 739 mmHg 18%
    08:00 +38°C° 0 mm 3 mps 740 mmHg 16%
    09:00 +40°C° 0 mm 3 mps 740 mmHg 14%
    10:00 +43°C° 0 mm 4 mps 740 mmHg 12%
    11:00 +46°C° 0 mm 5 mps 739 mmHg 10%
    12:00 +46°C° 0 mm 5 mps 739 mmHg 10%
    13:00 +47°C° 0 mm 6 mps 738 mmHg 9%
    14:00 +47°C° 0 mm 6 mps 737 mmHg 9%
    15:00 +47°C° 0 mm 6 mps 736 mmHg 9%
    16:00 +46°C° 0 mm 6 mps 736 mmHg 9%
    17:00 +46°C° 0 mm 6 mps 735 mmHg 10%
    18:00 +42°C° 0.1 mm 5 mps 736 mmHg 12%
    19:00 +40°C° 0.1 mm 4 mps 736 mmHg 14%
    20:00 +37°C° 0.1 mm 2 mps 737 mmHg 16%
    21:00 +37°C° 0.1 mm 2 mps 737 mmHg 17%
    22:00 +36°C° 0.1 mm 3 mps 738 mmHg 17%
    23:00 +36°C° 0.1 mm 3 mps 738 mmHg 18%

    14 April, Tuesday

    Time Temperature Precipitation Wind Pressure Humidity
    00:00 +35°C° 0 mm 3 mps 738 mmHg 19%
    01:00 +35°C° 0 mm 2 mps 738 mmHg 19%
    02:00 +34°C° 0 mm 2 mps 737 mmHg 20%
    03:00 +32°C° 0 mm 2 mps 738 mmHg 21%
    04:00 +32°C° 0 mm 2 mps 738 mmHg 21%
    05:00 +31°C° 0 mm 1 mps 738 mmHg 22%
    06:00 +34°C° 0 mm 2 mps 739 mmHg 20%
    07:00 +36°C° 0 mm 3 mps 739 mmHg 18%
    08:00 +38°C° 0 mm 4 mps 740 mmHg 16%
    09:00 +40°C° 0 mm 3 mps 740 mmHg 14%
    10:00 +43°C° 0 mm 3 mps 740 mmHg 12%
    11:00 +45°C° 0 mm 3 mps 740 mmHg 10%
    12:00 +45°C° 0 mm 3 mps 739 mmHg 10%
    13:00 +46°C° 0 mm 3 mps 738 mmHg 9%
    14:00 +47°C° 0 mm 3 mps 737 mmHg 8%
    15:00 +47°C° 0 mm 4 mps 737 mmHg 8%
    16:00 +47°C° 0 mm 4 mps 737 mmHg 8%
    17:00 +45°C° 0 mm 4 mps 736 mmHg 8%
    18:00 +43°C° 0 mm 4 mps 737 mmHg 9%
    19:00 +40°C° 0 mm 3 mps 738 mmHg 10%
    20:00 +38°C° 0 mm 2 mps 738 mmHg 11%
    21:00 +37°C° 0 mm 3 mps 738 mmHg 11%
    22:00 +37°C° 0 mm 3 mps 739 mmHg 11%
    23:00 +36°C° 0 mm 3 mps 739 mmHg 11%

    15 April, Wednesday

    Time Temperature Precipitation Wind Pressure Humidity
    00:00 +35°C° 0 mm 2 mps 739 mmHg 12%
    01:00 +35°C° 0 mm 2 mps 739 mmHg 13%
    02:00 +33°C° 0 mm 1 mps 739 mmHg 14%
    03:00 +32°C° 0 mm 1 mps 739 mmHg 15%
    04:00 +32°C° 0 mm 1 mps 739 mmHg 16%
    05:00 +30°C° 0 mm 0 mps 739 mmHg 17%
    06:00 +33°C° 0 mm 1 mps 740 mmHg 16%
    07:00 +35°C° 0 mm 1 mps 740 mmHg 14%
    08:00 +38°C° 0 mm 2 mps 741 mmHg 13%
    09:00 +40°C° 0 mm 2 mps 740 mmHg 11%
    10:00 +42°C° 0 mm 2 mps 740 mmHg 9%
    11:00 +45°C° 0 mm 2 mps 740 mmHg 7%
    12:00 +46°C° 0 mm 3 mps 739 mmHg 7%
    13:00 +47°C° 0 mm 4 mps 738 mmHg 6%
    14:00 +48°C° 0 mm 5 mps 737 mmHg 6%
    15:00 +48°C° 0 mm 5 mps 737 mmHg 6%
    16:00 +47°C° 0 mm 5 mps 736 mmHg 7%
    17:00 +47°C° 0 mm 5 mps 735 mmHg 7%
    18:00 +43°C° 0 mm 4 mps 736 mmHg 9%
    19:00 +40°C° 0 mm 3 mps 736 mmHg 11%
    20:00 +38°C° 0 mm 2 mps 736 mmHg 13%
    21:00 +37°C° 0 mm 3 mps 737 mmHg 13%
    22:00 +36°C° 0 mm 3 mps 737 mmHg 14%
    23:00 +35°C° 0 mm 3 mps 737 mmHg 15%
    Show more